GFSCGP_850_spd_000.txt.gz
Wind_Speed
7 4 8 9 7 5 4 3 5 4 5 5 7 9 16 11 19 15 24 25 22 17 11 7 3 1 7 9 8 13 13 16 16 11 10 10 8 8 6 5 4 6 3 5
4 12 7 7 4 4 3 3 5 5 3 6 8 10 8 8 13 27 29 29 25 20 15 10 6 1 4 9 5 10 10 13 17 12 10 12 13 10 7 9 11 10 13 12
9 4 8 7 5 4 5 3 5 7 2 3 1 6 5 5 7 13 21 27 28 24 18 13 9 3 1 8 6 8 9 12 14 12 9 13 14 12 9 12 12 12 13 17
7 6 8 5 5 8 4 8 6 4 2 5 4 5 6 6 6 7 19 29 30 27 19 14 11 7 2 6 7 6 10 11 10 13 11 14 15 19 15 14 18 19 19 20
10 8 6 5 10 7 10 3 5 3 4 2 2 2 6 2 6 10 17 30 33 29 23 18 13 8 4 6 6 4 8 9 8 12 14 18 15 16 15 14 9 11 14 14
10 9 10 12 8 9 3 3 6 4 4 1 7 7 5 5 8 7 5 27 35 32 25 17 12 10 7 6 4 2 6 7 6 8 12 14 16 15 15 15 12 4 6 12
4 5 4 6 5 3 5 6 4 4 3 6 3 3 8 8 10 9 9 26 36 34 28 22 19 15 11 7 5 1 2 4 4 5 8 12 12 13 13 12 12 7 10 13
10 9 10 4 8 10 7 9 5 6 3 5 3 5 6 7 8 14 13 20 34 35 30 24 19 16 13 9 7 6 2 2 3 4 7 10 9 9 13 14 14 14 17 18
8 8 3 7 5 11 5 4 6 4 1 2 3 7 10 4 4 4 11 21 32 37 32 26 21 18 15 12 7 5 5 2 2 2 3 6 6 6 8 12 13 19 19 15
6 2 5 7 5 1 9 6 2 2 2 4 4 4 6 9 5 5 7 18 31 36 32 26 22 20 17 14 9 7 6 3 4 2 1 4 4 5 6 7 10 14 15 15
6 6 4 6 7 9 3 3 4 4 4 5 3 6 6 6 9 8 10 24 33 39 35 28 23 19 18 15 13 9 7 5 4 5 2 1 3 5 6 6 8 9 10 11
8 7 6 8 3 5 7 10 9 5 5 3 4 8 6 7 9 8 11 21 29 36 33 27 24 21 20 18 15 10 9 6 4 4 4 3 3 4 8 8 8 7 10 11
8 3 3 5 3 1 4 5 5 5 4 7 5 6 3 4 3 3 9 17 25 32 32 28 26 25 23 20 17 11 9 9 6 4 4 4 5 5 8 9 8 10 11 12
20 6 11 15 5 6 5 5 6 7 5 5 6 5 5 2 4 2 6 14 22 33 35 31 28 28 25 21 19 14 10 12 9 6 4 3 5 8 9 12 10 10 10 11
7 8 6 5 10 11 13 8 12 9 8 8 8 9 7 4 4 8 10 16 23 30 36 36 31 30 29 24 21 16 11 11 11 8 5 2 4 11 12 12 11 11 10 9
0 4 8 7 9 13 11 16 15 17 3 2 6 5 7 6 6 5 12 21 27 31 40 40 35 30 30 29 23 19 15 12 12 10 8 5 5 10 15 13 13 11 11 10
1 4 4 5 5 7 16 15 13 8 5 9 7 9 7 5 8 13 13 20 26 30 34 43 40 34 31 31 26 23 17 14 13 12 11 9 6 10 14 15 14 13 11 11
2 4 2 3 6 8 5 8 16 19 11 7 4 9 11 12 20 18 8 10 22 27 28 40 43 37 32 30 28 23 20 16 14 13 13 12 9 11 13 14 15 15 14 12
8 5 2 5 4 4 1 5 8 8 11 14 10 5 10 11 6 14 14 15 19 26 24 29 42 41 35 32 30 28 25 20 17 15 15 13 11 12 12 13 14 14 14 14
5 3 5 3 7 10 6 6 7 5 6 10 16 9 9 13 4 9 21 20 22 22 29 23 32 43 39 34 33 31 29 26 23 18 16 14 13 12 12 12 12 12 12 12
4 2 12 2 4 6 5 8 15 8 7 12 28 26 19 7 21 28 21 21 17 19 25 26 26 33 40 39 37 36 33 32 27 21 18 17 16 14 13 13 13 13 13 13
8 7 5 2 3 8 7 7 12 8 10 12 27 27 32 37 31 28 21 17 14 15 19 23 23 28 34 41 40 41 39 31 31 27 23 20 19 17 17 17 16 15 15 14
10 7 7 9 6 4 27 19 30 20 16 15 24 27 31 31 31 24 25 24 21 16 16 17 18 23 29 34 43 45 39 34 33 33 29 26 23 21 20 21 21 20 19 18
3 3 5 4 6 6 26 14 24 15 16 15 11 14 19 22 24 25 26 22 20 16 13 15 22 25 29 31 39 47 41 38 35 36 34 31 29 27 25 24 25 24 24 23
7 8 7 2 2 2 11 30 22 27 15 15 14 11 15 20 19 19 17 17 19 16 16 17 20 22 26 29 34 43 47 42 42 37 38 36 35 32 29 28 28 29 27 25
4 6 8 8 11 11 16 33 32 25 31 24 14 14 20 19 15 14 15 18 17 13 12 16 23 25 24 27 36 40 44 47 47 43 41 42 40 39 36 33 31 30 28 26

GFSCGP_850_spd_003.txt.gz
Wind_Speed
11 10 16 17 12 9 9 5 5 5 5 4 10 12 16 16 15 17 19 21 21 22 16 11 8 3 2 5 5 9 11 14 15 10 9 10 10 9 6 3 4 8 7 6
7 18 12 11 9 9 6 5 6 6 5 4 10 14 16 12 10 18 22 23 24 20 20 15 11 5 1 4 3 7 10 12 13 9 10 14 13 10 7 6 7 13 6 8
20 9 12 11 9 9 6 7 4 9 3 5 7 11 8 8 6 8 15 21 24 26 23 19 15 8 4 2 2 7 10 11 12 9 6 12 14 11 13 17 18 25 16 10
12 9 13 11 13 12 11 11 7 5 4 9 1 7 7 9 11 9 14 20 24 26 23 19 16 10 7 3 4 6 9 10 11 14 10 11 14 15 12 16 19 21 23 23
15 14 16 11 12 12 9 6 5 4 7 3 4 4 5 4 9 13 15 20 24 28 29 24 18 12 9 6 5 5 8 9 10 12 13 14 15 13 10 11 15 18 19 18
17 5 10 14 8 13 4 4 3 2 2 4 7 6 4 5 8 6 7 12 22 27 28 24 17 14 11 8 5 4 6 6 8 9 12 13 14 14 13 10 9 10 15 18
10 13 5 6 8 4 8 7 5 4 4 6 2 4 8 11 14 13 13 7 17 26 28 26 23 19 14 11 7 3 5 4 6 8 9 12 15 17 14 16 8 7 7 18
16 13 16 9 17 13 13 12 7 4 4 8 3 5 6 8 6 6 9 6 15 25 28 26 23 19 16 12 9 5 2 4 5 7 10 10 11 14 16 17 15 17 18 11
18 18 5 14 8 16 7 7 6 8 1 4 3 5 11 6 9 5 3 9 17 25 30 28 23 19 17 14 11 7 2 4 3 6 8 9 8 10 12 19 19 19 16 13
7 8 14 12 11 8 13 12 5 3 5 7 4 3 7 13 10 1 5 10 17 23 26 26 23 20 19 16 12 7 4 1 2 3 7 7 6 7 9 11 12 12 14 14
14 9 4 10 16 18 7 9 3 3 4 7 8 5 5 8 4 5 7 13 20 26 28 26 23 21 19 17 14 9 5 2 1 2 4 6 6 5 7 9 9 9 12 14
20 12 15 10 4 16 22 18 15 10 9 4 5 10 5 7 3 5 4 9 15 25 27 24 23 23 22 19 16 11 7 5 3 3 3 4 5 5 6 8 11 11 11 13
13 12 13 14 5 3 13 12 14 7 3 13 11 8 2 4 1 5 11 16 19 27 26 24 24 25 23 21 17 14 10 9 5 5 4 4 5 6 7 6 9 12 13 15
25 10 24 19 13 13 10 13 15 16 10 11 12 14 7 8 5 8 14 16 20 28 31 26 25 25 24 22 19 16 12 12 8 7 6 5 7 7 9 8 9 10 11 12
17 19 17 21 15 18 19 18 17 16 15 13 12 11 13 11 8 8 10 16 19 25 29 32 29 27 27 24 22 18 14 14 11 9 6 6 9 11 9 10 10 10 10 11
3 10 14 17 17 21 22 22 19 21 20 17 16 15 10 8 9 9 12 16 19 26 33 30 29 30 29 27 25 22 18 16 13 11 9 6 8 13 13 11 11 11 10 11
6 8 8 16 12 18 19 25 23 18 15 15 15 17 9 9 11 14 18 20 23 24 29 33 36 33 31 30 27 26 21 18 15 13 12 8 8 14 17 15 13 12 11 10
6 7 4 5 10 11 2 10 23 20 18 19 17 16 16 19 22 15 17 21 19 21 25 32 37 35 31 29 28 25 23 20 17 16 15 11 9 14 18 18 16 14 13 11
2 3 5 6 9 3 4 4 11 14 16 17 21 19 16 11 9 13 17 18 13 13 16 21 30 38 32 31 30 28 26 23 21 19 18 15 11 13 17 18 18 17 15 14
7 1 3 3 9 17 8 8 8 10 11 15 21 17 15 15 10 13 24 24 19 11 11 20 23 34 37 33 31 31 30 28 25 22 19 17 14 13 14 16 17 17 16 14
5 4 9 6 5 4 5 9 18 13 6 11 24 23 19 14 20 18 15 22 16 10 10 18 25 25 33 38 36 35 34 32 27 23 20 19 16 14 14 15 16 16 17 17
10 7 7 5 7 12 7 12 13 7 6 11 18 21 27 36 18 20 15 16 12 8 8 19 26 27 27 38 40 38 38 33 30 27 24 22 20 18 18 17 18 19 18 18
8 10 11 8 7 3 26 15 26 15 12 12 15 18 23 21 22 21 23 23 16 11 10 16 26 28 29 33 43 44 38 36 35 32 29 25 23 22 21 21 22 22 21 20
19 7 10 10 16 10 17 16 16 22 15 12 12 11 15 19 15 19 18 16 16 16 16 17 26 27 26 31 39 46 41 39 37 37 33 29 27 26 24 24 24 24 24 23
14 13 14 12 10 7 9 20 11 18 14 12 10 14 13 12 13 12 11 12 13 13 18 20 25 27 26 27 36 43 46 41 40 39 37 35 32 29 28 28 28 28 26 25
5 14 10 13 9 11 13 26 29 23 25 20 19 17 12 11 10 10 10 10 12 15 19 21 22 23 26 28 32 38 44 46 42 42 41 40 38 35 32 30 29 28 26 24

GFSCGP_850_spd_006.txt.gz
Wind_Speed
25 19 22 27 22 17 14 12 14 12 7 10 16 15 15 18 21 16 17 19 21 20 17 15 13 8 4 1 2 4 6 9 11 8 10 12 11 8 6 6 10 11 11 7
16 23 25 22 19 17 15 17 17 11 10 9 15 17 19 17 17 16 16 18 20 19 19 17 14 9 5 2 1 3 5 8 10 8 11 10 9 9 11 14 8 8 6 8
23 21 22 20 16 18 19 18 15 12 12 12 16 18 12 9 10 13 13 15 18 22 22 20 16 12 7 3 3 1 4 7 10 12 10 12 10 9 10 17 24 19 5 5
22 21 20 18 23 21 20 16 15 14 12 12 4 14 14 10 11 11 13 14 17 21 22 21 18 14 9 6 5 2 3 7 8 12 9 11 7 4 6 10 15 15 15 8
25 23 23 22 22 20 17 13 13 15 12 12 16 8 10 6 9 7 6 13 15 20 23 23 20 15 11 9 6 3 2 5 7 10 11 10 9 9 4 5 11 18 12 14
23 19 19 20 15 13 15 8 10 8 11 12 15 10 9 3 4 5 5 1 11 18 22 21 19 15 13 10 8 4 3 5 5 7 10 12 14 14 11 2 4 12 13 11
25 20 19 18 18 13 17 13 9 10 9 11 2 6 10 10 8 9 9 6 9 19 24 24 22 18 15 13 10 6 4 4 5 6 7 10 12 15 15 9 6 9 10 12
22 24 25 18 19 17 20 18 11 10 11 10 6 6 4 2 6 7 6 5 10 21 25 25 22 18 15 14 12 8 5 5 5 6 6 8 11 11 13 14 16 14 12 15
23 24 28 23 21 20 14 16 17 15 13 8 11 5 11 7 7 4 3 6 14 22 24 24 22 18 16 15 13 10 7 6 6 5 6 7 10 11 13 14 15 16 20 17
11 18 15 23 21 22 20 16 10 10 14 13 8 7 7 3 5 4 6 9 16 22 24 23 21 18 17 15 14 11 8 6 7 6 6 6 8 8 10 10 12 11 12 16
15 12 22 17 22 22 13 16 14 13 13 12 9 6 5 4 3 3 7 13 19 23 25 25 22 19 18 17 14 12 10 8 8 7 6 7 7 8 9 10 12 14 15 18
30 13 14 23 21 22 22 22 21 11 16 10 10 10 3 5 1 3 9 16 22 24 24 23 22 20 20 18 16 13 11 9 9 8 7 7 8 8 9 10 12 12 16 18
25 15 15 15 11 15 23 21 21 20 15 16 12 9 6 5 6 4 12 18 21 25 25 23 23 22 21 19 17 14 13 11 10 10 8 8 8 9 9 13 15 13 15 15
25 18 27 22 21 19 21 21 23 22 16 16 17 16 9 8 9 8 11 16 22 27 28 25 24 22 21 20 18 16 14 13 12 11 10 10 10 11 10 12 12 13 15 17
20 25 25 25 21 24 21 23 24 24 23 19 16 17 15 10 9 9 12 17 20 27 27 27 26 24 23 22 19 17 15 15 14 13 11 11 12 12 11 11 11 13 13 15
21 15 21 21 26 20 22 24 24 25 25 22 19 17 11 13 7 9 14 20 23 29 32 29 26 25 25 25 23 20 17 17 16 14 12 12 13 13 12 12 13 13 14 14
22 17 15 21 20 21 22 26 25 23 25 22 22 19 15 11 12 14 16 20 24 27 31 31 30 28 26 26 25 23 20 18 17 15 14 13 14 15 14 13 13 13 14 14
19 21 14 13 16 19 19 22 25 24 20 21 20 17 17 15 17 19 16 20 21 24 27 30 28 27 27 26 25 23 22 21 18 17 15 14 14 16 16 15 14 15 15 14
13 17 12 12 17 8 12 12 22 23 23 20 21 20 21 16 14 14 17 20 20 25 27 31 31 30 28 28 27 26 24 22 21 19 18 16 15 17 18 17 16 17 17 16
6 13 14 12 18 26 11 14 16 17 17 20 22 19 18 16 11 13 23 22 20 19 22 26 29 31 29 29 29 29 27 25 24 22 20 18 17 18 19 19 19 19 17 15
11 11 17 13 14 11 4 18 15 17 8 16 24 25 22 14 21 10 10 22 23 20 21 23 28 33 37 34 32 32 29 29 25 23 21 20 18 18 19 19 20 21 20 14
13 12 12 14 13 12 10 12 18 9 7 9 15 18 20 26 24 12 9 15 23 21 19 24 27 30 32 36 35 32 32 29 26 25 24 22 21 19 19 21 21 21 20 18
12 14 12 12 10 7 15 9 18 10 14 12 10 15 18 18 18 13 13 15 18 15 16 20 25 26 28 34 37 35 34 30 29 27 26 25 23 21 21 23 23 22 23 18
10 6 5 6 11 4 9 10 8 15 13 9 10 10 13 14 12 14 15 16 19 16 14 15 21 27 28 33 40 42 32 32 31 30 28 26 26 25 23 22 23 21 22 20
13 13 13 11 14 12 16 20 13 13 13 9 9 12 12 11 11 12 13 14 13 14 14 16 20 25 29 30 33 35 35 34 34 33 31 29 27 29 27 26 25 24 24 23
14 14 14 12 10 17 17 16 25 15 16 15 12 12 12 11 12 11 9 10 10 11 13 16 18 21 25 26 29 32 37 37 40 40 35 33 30 30 27 27 25 29 25 27

GFSCGP_850_spd_012.txt.gz
Wind_Speed
27 15 22 25 26 26 24 24 24 22 14 10 15 20 15 14 16 23 22 18 16 17 20 21 20 16 13 10 7 5 6 6 8 10 12 9 7 7 11 14 9 8 11 11
22 26 26 27 26 27 28 26 24 21 18 14 15 15 13 14 19 27 24 16 15 19 22 21 19 18 14 10 7 7 3 6 6 8 7 6 6 7 10 11 14 6 2 8
28 27 27 28 26 26 25 25 20 23 17 16 16 15 14 21 22 21 17 7 4 20 22 23 20 19 15 12 10 6 5 3 5 6 8 11 11 10 8 9 9 8 1 5
31 27 28 29 28 26 25 25 25 19 15 12 14 14 13 15 16 11 8 13 15 21 23 25 22 20 17 12 9 7 5 1 4 4 6 13 12 12 8 5 11 8 3 4
31 29 29 29 28 28 23 24 22 17 15 16 15 12 14 15 17 7 1 7 21 25 25 26 23 20 16 13 11 7 5 2 2 9 9 9 13 14 7 3 7 7 4 3
27 29 29 30 26 26 25 22 17 12 12 13 16 15 14 15 2 4 2 7 18 21 23 23 21 19 16 14 11 8 6 4 1 3 8 11 16 13 8 6 6 6 6 2
27 30 30 29 28 23 22 17 11 12 12 12 17 17 16 12 7 1 2 6 18 20 22 23 22 20 18 14 12 8 7 4 2 1 4 7 11 14 13 11 11 9 11 7
22 23 32 26 31 26 23 16 13 15 12 16 15 13 4 2 6 4 2 6 14 18 22 23 22 20 18 15 12 9 7 5 3 1 2 6 6 10 13 16 14 15 13 9
22 28 24 32 24 25 21 22 18 18 16 13 7 13 10 12 9 9 10 10 15 15 22 22 22 20 17 15 13 10 7 6 4 1 1 4 6 10 11 12 14 14 13 14
23 17 28 29 25 24 22 19 16 12 17 15 13 14 7 12 8 11 11 10 14 18 21 22 22 20 16 15 14 11 8 7 5 2 1 2 4 7 8 10 12 14 15 14
25 16 19 23 27 22 18 20 18 14 14 12 11 10 15 11 9 11 11 16 17 22 23 23 22 19 17 16 14 13 9 7 6 4 3 4 3 6 6 9 11 14 12 14
31 10 16 25 25 26 23 23 18 10 17 12 11 3 10 9 9 6 19 19 20 23 23 22 21 19 18 17 16 14 11 8 7 5 4 5 4 5 6 8 11 14 13 10
26 20 14 20 21 24 23 24 21 15 9 15 12 11 11 12 9 11 13 24 22 23 22 21 21 20 19 18 17 14 13 11 8 7 6 7 5 4 7 8 10 13 13 17
21 19 21 15 17 22 25 24 22 19 13 14 15 17 13 12 9 9 13 27 25 23 23 21 21 21 20 19 18 15 13 13 10 10 7 8 7 6 10 10 11 9 11 17
21 26 22 25 24 27 26 27 25 24 20 19 17 17 11 12 8 11 16 22 25 24 25 23 22 22 22 20 19 17 14 15 13 12 11 10 10 10 10 9 10 13 10 12
19 22 24 24 28 25 28 28 26 26 25 22 21 18 14 11 24 18 21 21 19 25 26 24 22 22 23 23 21 19 16 16 14 14 12 12 12 11 12 11 12 12 14 11
12 19 20 23 23 25 24 27 26 21 21 22 21 15 13 12 11 10 22 20 19 23 27 27 25 24 25 25 23 21 18 18 16 15 14 14 15 13 13 12 13 14 13 14
15 20 17 18 19 26 16 19 22 21 19 20 18 16 17 15 11 17 21 23 20 22 26 29 28 26 27 25 24 22 20 19 18 17 15 16 15 15 14 14 14 16 16 13
18 17 11 16 19 15 21 25 22 20 21 19 19 17 15 22 20 15 20 15 24 24 27 30 30 28 27 27 25 24 22 21 19 18 18 17 18 18 17 16 16 15 18 16
18 16 12 11 21 24 17 22 22 15 16 17 18 15 14 19 12 10 19 17 25 23 25 28 31 30 28 28 28 27 25 23 22 20 19 17 18 20 20 20 18 16 17 17
16 15 18 13 11 16 22 20 27 19 9 16 21 21 20 13 13 16 20 21 27 27 27 29 34 34 32 32 31 30 27 26 23 20 19 18 19 22 21 21 20 19 18 15
19 16 13 16 13 15 15 22 22 8 7 14 23 24 20 17 17 18 14 16 27 26 24 29 35 35 34 34 33 32 30 27 23 22 21 20 21 21 22 24 21 21 20 17
8 12 12 12 13 5 12 10 17 14 16 12 27 26 25 22 21 20 14 13 22 21 23 27 32 33 35 35 37 35 31 28 25 23 23 24 23 21 23 26 25 22 23 18
12 11 3 17 11 19 17 18 23 19 15 18 18 25 25 23 23 20 18 21 20 19 23 28 31 33 35 35 35 35 31 30 27 26 26 26 25 22 24 22 26 25 24 24
7 11 14 12 7 15 16 14 26 20 20 19 14 18 24 27 25 23 20 19 18 19 26 26 30 33 35 35 35 34 32 32 30 29 28 29 28 23 25 22 23 25 23 26
1 3 6 5 17 10 15 3 25 19 24 20 16 17 19 18 20 20 21 17 18 21 26 27 25 28 31 32 34 35 35 34 34 32 32 32 30 27 27 26 23 19 21 18

GFSCGP_850_spd_015.txt.gz
Wind_Speed
20 10 18 21 22 16 14 14 19 22 19 17 6 20 9 15 13 10 18 21 20 18 34 30 25 21 16 10 9 6 4 8 8 9 12 10 10 12 13 14 14 10 7 9
14 26 21 19 16 20 17 19 22 23 19 4 15 20 13 8 7 15 22 27 23 24 35 28 24 20 16 10 7 5 6 6 7 6 8 10 14 14 14 12 13 11 4 6
25 15 19 19 18 19 21 20 21 19 21 16 6 5 5 5 9 20 29 33 19 29 37 32 27 22 17 11 8 6 6 7 3 5 8 11 12 11 12 7 11 9 3 3
22 21 19 23 23 21 21 19 21 21 16 8 1 6 4 6 10 10 22 22 27 35 34 33 29 25 17 11 8 8 9 2 2 6 9 12 17 16 10 4 10 7 3 4
20 24 24 23 23 24 22 16 19 21 15 7 4 3 5 4 8 13 4 20 34 38 34 33 30 22 14 11 10 10 7 4 1 7 10 13 16 11 7 3 6 8 1 3
20 21 21 29 24 24 25 16 16 16 11 4 6 7 9 6 8 5 4 15 36 36 34 31 25 19 15 13 13 9 7 4 3 4 7 9 12 12 10 7 6 6 1 4
22 25 22 23 22 23 20 14 9 3 3 6 5 4 9 9 7 7 10 25 33 32 33 31 26 22 19 18 13 10 10 3 5 3 5 7 11 11 13 11 9 7 7 5
17 12 27 24 26 21 19 15 7 7 4 5 6 7 10 14 12 19 30 32 32 35 33 31 27 23 21 16 15 9 10 7 6 1 3 6 8 7 10 12 10 10 6 10
19 17 11 26 18 23 16 12 13 5 1 2 5 6 6 7 8 10 20 29 32 34 33 30 26 22 21 17 15 11 10 5 7 2 2 5 7 8 9 10 11 10 10 9
5 5 21 21 18 18 23 7 7 1 8 6 5 6 6 7 9 10 11 19 30 33 31 30 28 23 20 18 15 11 9 9 6 1 4 4 5 7 9 9 10 9 11 13
17 4 7 19 21 23 12 12 4 7 6 5 2 7 7 12 9 14 12 27 32 34 32 31 26 23 20 19 16 14 10 9 8 5 5 4 2 2 7 9 11 7 10 14
31 6 10 15 18 22 14 10 7 8 6 5 5 6 9 8 12 12 18 28 30 31 31 29 27 25 21 19 16 15 11 11 7 5 6 6 3 1 6 7 11 11 7 14
22 18 4 5 8 11 18 14 9 6 6 8 5 5 6 10 9 23 23 30 31 31 30 29 29 26 22 19 17 13 14 12 8 8 5 7 2 1 5 8 10 13 11 10
23 13 22 10 9 10 24 18 16 9 5 7 8 7 5 7 10 10 24 33 34 33 32 32 31 27 23 20 19 15 14 14 11 11 6 9 2 10 10 9 11 12 15 14
5 22 13 23 21 12 22 21 20 17 9 14 8 6 11 10 10 17 33 34 34 34 33 33 32 28 25 21 21 17 13 17 14 13 7 8 6 12 10 11 10 11 12 15
11 14 22 17 20 21 13 26 22 20 11 7 13 12 10 13 25 17 31 33 32 35 35 34 32 29 27 24 23 20 16 19 16 14 10 7 10 13 11 11 10 11 13 15
7 6 12 22 18 11 15 19 23 19 9 13 13 6 4 5 9 13 30 36 35 37 38 35 34 31 29 28 24 22 19 21 17 15 12 6 16 14 14 13 13 11 9 10
11 10 4 11 13 19 9 12 17 19 17 10 8 14 9 8 11 25 40 39 40 41 40 36 35 31 29 27 25 23 22 22 17 17 14 8 17 15 15 16 15 12 8 5
16 8 5 8 15 2 10 13 23 15 15 15 10 12 14 25 15 7 39 39 40 40 41 40 38 32 30 29 27 26 24 22 18 20 18 12 17 16 18 17 18 16 10 7
15 14 5 1 9 19 7 7 7 7 12 11 12 11 9 15 10 5 33 39 38 37 38 41 39 35 33 32 30 29 27 24 20 20 22 15 14 18 18 18 16 18 16 11
8 6 11 6 4 5 9 8 4 10 8 9 21 17 13 7 10 21 19 38 36 38 38 39 39 38 35 33 32 31 29 28 21 19 21 19 15 19 15 19 16 16 20 16
4 1 3 4 4 5 5 6 7 6 7 25 25 32 27 25 23 16 13 32 39 39 38 39 41 39 37 34 32 32 32 28 23 22 23 22 19 21 21 19 19 15 20 21
4 3 2 5 5 4 12 2 18 25 19 17 23 32 34 28 26 23 13 33 40 40 40 41 41 41 38 35 31 33 31 29 26 24 26 25 22 21 22 22 20 19 22 21
11 13 3 9 16 17 23 33 39 14 25 21 18 27 37 32 27 21 20 27 40 40 40 42 43 41 39 37 32 28 31 31 28 26 27 28 26 23 22 21 21 21 23 26
2 14 8 6 16 24 28 40 40 34 18 4 19 22 37 35 30 28 27 31 39 37 40 41 42 40 38 37 33 29 31 32 32 28 28 31 28 26 23 22 22 21 22 25
8 4 4 4 17 8 21 40 32 32 28 19 23 13 37 37 35 33 30 39 37 34 38 39 40 37 35 35 34 32 32 34 35 32 32 32 32 30 26 22 22 20 20 20

GFSCGP_850_spd_021.txt.gz
Wind_Speed
16 8 19 18 21 17 8 8 9 8 4 7 8 9 15 18 15 21 30 32 31 37 30 26 36 36 38 32 25 16 11 8 5 3 3 6 9 12 12 12 13 12 12 9
7 30 19 16 16 16 9 9 17 18 8 7 9 14 15 12 13 19 26 32 26 22 18 19 29 37 38 32 21 14 11 8 5 2 3 8 11 14 13 11 9 10 12 7
28 20 16 20 16 18 18 17 15 19 2 6 8 14 12 15 8 21 21 19 18 23 24 25 35 40 35 27 18 12 10 6 4 1 4 7 11 11 9 6 5 8 7 4
18 21 22 17 24 17 19 16 21 18 5 6 4 5 5 8 10 7 18 14 18 20 20 26 39 37 32 22 14 12 9 5 5 0 4 8 10 11 9 6 5 7 5 2
12 18 24 21 21 22 18 11 9 10 6 4 9 3 7 4 8 11 11 14 13 14 21 31 40 35 25 17 13 11 8 6 6 1 5 7 8 10 10 8 6 5 3 4
10 15 25 25 14 19 7 4 2 4 4 12 19 7 5 7 8 7 4 5 10 20 26 32 35 29 21 16 14 11 7 7 6 2 5 5 8 10 11 10 8 7 3 6
6 12 3 7 15 6 7 7 2 3 5 7 7 6 15 7 9 9 9 10 17 22 28 34 35 30 23 19 16 11 8 8 6 2 5 5 7 8 10 12 8 3 1 7
14 11 22 12 9 12 14 14 6 6 4 4 7 7 7 8 11 19 24 14 24 26 28 35 35 28 23 19 17 10 9 7 5 2 4 4 5 7 9 11 8 5 4 6
12 14 2 16 6 14 9 16 12 2 2 2 4 7 9 2 5 6 10 21 26 29 31 35 33 27 22 20 17 10 10 7 4 2 2 2 4 8 9 9 6 4 4 6
3 5 8 19 19 18 10 10 8 5 5 4 4 4 6 4 5 3 7 12 23 27 31 33 33 27 20 18 14 11 9 6 4 2 1 1 4 7 8 8 5 5 4 4
4 1 3 6 16 21 8 8 5 7 6 5 2 6 7 9 9 11 9 20 29 32 32 36 33 26 19 20 16 13 13 10 6 2 2 0 3 5 7 9 4 3 5 5
5 5 5 13 2 20 13 12 10 9 6 6 3 7 5 9 10 13 13 26 30 31 32 36 31 27 24 23 19 15 15 12 7 2 3 2 2 4 5 9 4 6 6 8
8 5 5 6 2 4 23 19 17 4 3 7 9 8 3 4 6 12 17 27 30 29 32 34 32 29 27 25 21 16 16 12 8 3 2 3 2 3 5 8 9 9 8 10
9 4 10 12 3 5 6 21 11 16 12 10 9 3 3 5 9 6 13 24 31 32 35 35 33 31 28 26 23 17 16 13 10 4 3 3 1 5 6 10 9 10 9 10
3 4 6 16 21 10 3 11 21 19 14 15 12 9 9 10 10 15 27 26 28 31 35 36 35 33 30 29 25 20 16 16 13 7 5 5 7 9 9 8 10 11 9 10
4 4 7 7 14 21 16 4 22 21 16 11 8 8 8 9 11 12 24 28 29 34 38 37 35 33 32 30 26 22 17 18 16 10 7 8 9 10 9 8 9 9 9 10
6 3 10 6 8 11 15 27 9 15 17 18 10 9 8 5 13 16 23 30 35 38 40 39 37 35 33 32 27 25 19 18 18 14 10 8 12 10 9 9 11 11 9 8
7 2 2 5 3 7 16 13 16 10 12 11 4 10 13 14 29 35 41 44 36 38 39 39 37 36 33 31 28 25 23 19 20 17 13 9 15 13 11 10 9 9 8 9
18 5 2 3 4 6 5 3 13 9 11 10 12 8 12 19 19 8 36 43 44 41 37 37 34 32 33 32 29 28 27 22 23 21 17 12 16 16 12 11 10 8 10 12
15 12 6 2 4 6 5 13 1 6 13 8 9 10 9 14 10 6 35 42 42 40 37 35 35 35 34 33 32 30 30 27 26 24 18 14 16 17 14 11 11 9 11 14
4 3 9 5 4 6 17 21 15 13 3 15 11 17 11 11 16 36 32 42 45 41 38 35 35 37 35 35 35 33 31 30 24 23 19 16 16 19 17 16 12 11 13 15
2 3 4 4 4 5 24 8 6 9 22 20 22 19 30 36 30 29 32 37 40 42 40 37 36 38 37 36 36 36 33 25 25 25 21 19 16 21 20 19 16 13 13 16
2 1 3 4 2 3 12 7 18 21 21 19 24 20 19 35 33 32 33 36 39 44 45 40 38 39 39 39 38 36 33 29 28 27 23 22 20 19 20 21 20 17 16 17
3 4 3 6 3 9 22 20 27 25 25 27 23 16 12 28 34 31 31 37 40 43 48 43 39 39 41 41 40 34 34 30 30 28 24 25 25 22 21 21 21 21 20 21
3 3 2 5 11 16 3 28 33 37 34 33 26 17 7 20 27 35 35 39 41 43 47 45 41 39 40 42 41 39 35 33 32 29 26 26 28 26 23 21 20 21 20 20
4 4 1 3 9 9 16 31 37 36 38 36 30 19 13 10 23 29 35 36 42 43 46 48 44 39 38 41 41 40 36 35 34 33 31 28 29 30 28 25 24 22 18 18

GFSCGP_850_spd_024.txt.gz
Wind_Speed
14 8 20 28 20 7 10 14 10 8 3 6 7 8 18 22 15 20 29 33 38 31 29 26 23 27 32 28 31 32 24 17 13 11 9 7 7 10 12 13 13 13 12 12
6 28 20 14 16 19 12 15 14 16 6 5 11 12 16 17 15 22 28 35 33 28 24 20 18 25 28 31 36 27 19 15 12 10 7 6 7 9 10 9 10 10 10 11
27 27 15 17 19 17 19 21 19 18 4 4 7 11 15 14 10 18 25 21 20 20 18 19 19 20 27 36 31 22 16 14 11 8 5 4 6 8 9 7 5 6 8 8
19 25 21 16 23 18 24 16 16 14 1 4 4 6 13 15 13 8 21 20 19 17 15 14 16 22 32 32 25 18 15 13 11 6 2 3 4 8 9 7 6 7 7 4
13 19 30 22 23 22 13 13 13 9 5 3 2 5 6 4 11 12 10 25 18 14 13 16 20 28 33 28 21 17 14 11 10 5 1 3 5 8 9 9 7 6 6 3
9 10 19 23 14 18 8 6 5 3 2 6 9 7 7 6 15 7 7 10 10 9 15 18 23 33 30 23 20 17 12 10 9 5 1 3 6 7 9 10 8 6 3 4
5 9 2 10 7 6 9 8 1 2 2 5 5 8 15 9 10 11 11 12 6 14 21 25 36 35 30 25 20 16 11 9 8 5 2 3 4 7 9 11 8 4 0 5
7 5 13 10 9 11 22 13 7 8 4 4 10 8 6 20 22 24 24 17 13 19 23 31 37 34 28 24 19 13 10 9 8 5 1 1 3 7 8 9 7 5 3 6
9 7 5 17 8 18 7 15 9 4 2 2 5 6 6 9 8 8 8 13 20 23 28 33 36 31 27 22 18 12 11 10 8 5 1 1 3 6 7 7 7 3 3 6
5 2 8 14 8 18 14 11 6 3 6 4 5 4 5 6 7 4 5 10 20 24 28 33 35 30 25 18 17 13 11 8 7 5 3 2 3 5 7 7 5 5 3 5
5 1 2 10 17 13 4 10 3 6 5 5 1 6 7 7 8 8 8 16 24 28 30 34 35 29 22 19 17 13 13 10 7 5 3 1 2 4 6 7 4 3 3 6
3 3 3 15 6 19 14 9 9 8 10 2 3 5 4 8 6 4 9 22 24 26 29 34 34 29 25 22 18 14 13 11 8 4 3 2 2 3 5 5 5 5 5 7
8 4 2 3 5 3 23 14 8 6 4 13 4 5 2 4 2 5 11 22 25 25 30 33 33 30 26 23 20 16 15 12 10 4 4 4 2 3 5 6 8 7 9 9
10 3 3 6 2 4 14 15 15 6 4 7 20 4 7 6 6 6 14 20 24 27 31 33 34 31 27 24 22 17 16 14 10 6 5 5 3 4 6 9 8 7 9 10
6 4 3 10 11 8 5 19 18 24 19 7 6 7 7 9 10 11 20 21 23 26 30 34 35 32 29 26 24 19 16 15 13 8 6 6 8 7 8 9 10 8 9 10
5 4 8 5 12 8 10 8 20 22 17 15 6 8 8 5 6 10 23 26 27 30 31 34 35 33 31 28 26 22 18 17 15 10 8 10 10 8 7 10 10 9 9 9
3 3 5 5 10 8 8 20 9 13 18 13 11 16 5 4 7 10 22 31 33 34 34 37 38 35 32 28 27 24 19 19 18 14 10 12 11 10 8 9 10 10 8 8
5 4 2 4 5 6 6 7 14 13 7 13 7 7 9 9 25 26 31 35 34 34 34 35 36 35 31 28 27 24 21 20 20 17 13 13 13 12 10 9 8 8 9 9
10 4 3 2 3 6 5 7 6 3 10 8 11 12 8 19 8 9 31 35 37 38 36 35 34 33 31 29 28 27 25 21 21 20 16 13 15 14 13 10 7 7 10 11
10 8 3 1 2 5 1 12 14 7 6 11 11 9 7 9 6 7 31 36 34 32 34 34 32 33 31 31 30 30 28 25 22 22 18 14 17 15 14 11 9 10 11 12
5 4 8 6 3 6 10 18 15 7 4 20 19 16 15 6 15 36 30 37 38 35 34 33 33 34 31 32 32 32 30 29 21 21 20 17 16 17 14 13 11 12 13 13
3 4 3 3 3 5 15 7 7 7 16 18 20 19 21 24 25 32 31 38 39 36 33 34 34 34 33 32 33 33 32 25 24 22 23 20 17 19 17 15 14 13 14 14
2 2 2 2 3 5 17 8 12 14 19 19 26 30 26 27 29 26 33 37 38 36 36 37 36 36 33 33 35 33 30 28 27 25 25 22 19 20 19 19 17 16 15 16
0 4 3 2 2 12 23 14 15 24 28 30 29 30 23 24 24 30 30 35 34 36 37 40 40 38 38 36 35 33 29 28 29 28 27 24 22 21 21 20 19 17 17 17
2 2 0 5 6 16 2 23 29 36 37 38 35 27 21 20 25 29 31 31 34 37 36 41 43 41 39 39 36 36 33 30 31 30 29 27 25 21 22 21 20 19 16 16
3 2 1 2 7 9 14 25 30 32 36 41 36 30 20 15 18 26 30 32 37 37 38 40 42 40 39 38 38 36 35 33 31 33 33 29 29 27 23 22 21 20 17 15

GFSCGP_850_spd_027.txt.gz
Wind_Speed
25 12 26 30 29 15 17 21 21 14 9 7 13 18 15 24 25 25 27 30 31 34 31 29 19 15 15 18 22 26 32 30 24 19 16 14 10 10 12 14 15 15 15 14
11 28 32 26 19 23 24 22 23 14 12 9 16 22 18 18 23 21 24 28 26 25 21 17 13 13 15 16 22 30 31 25 19 16 13 9 8 9 9 11 11 10 10 12
26 39 23 22 26 25 28 29 23 20 5 9 9 18 20 23 16 21 27 25 25 21 14 11 10 10 12 18 26 31 26 20 16 13 10 8 7 5 7 8 7 6 8 9
22 27 21 23 28 23 27 23 23 19 9 13 2 19 16 21 21 18 24 20 20 15 14 9 8 10 14 21 29 26 21 17 14 12 9 6 4 3 5 6 6 7 7 6
19 18 23 26 28 27 21 14 19 16 7 12 19 13 16 7 17 22 20 19 10 6 6 7 9 11 18 28 28 23 19 15 14 11 7 4 2 3 6 7 7 6 6 5
19 13 25 27 16 22 15 11 11 9 11 17 19 14 21 14 21 17 14 15 5 4 2 9 13 19 28 29 25 21 17 15 13 10 5 3 2 3 6 8 7 5 3 5
17 17 5 14 23 21 20 15 7 8 9 13 11 13 19 10 18 17 16 10 4 2 8 15 21 28 33 29 24 20 17 15 13 10 4 2 1 3 6 8 6 2 2 6
15 11 21 17 16 18 28 23 11 11 9 9 15 10 9 19 27 26 23 10 6 8 14 19 24 27 31 27 23 18 15 14 12 9 3 2 1 3 6 5 5 4 3 8
12 15 14 19 13 24 24 18 18 14 1 3 5 6 12 16 12 12 18 13 11 14 19 22 26 30 29 25 21 17 14 13 12 9 4 3 1 4 5 3 4 2 4 9
7 7 13 16 21 25 19 23 12 10 13 8 5 5 10 9 14 10 9 12 13 16 20 24 28 31 28 22 19 16 13 12 11 7 5 3 1 2 5 3 2 3 5 9
11 7 12 18 19 23 11 22 7 10 6 6 3 5 8 16 15 14 11 14 19 21 24 27 28 30 26 22 20 16 15 13 11 7 5 3 1 1 4 2 2 3 5 8
6 6 5 24 11 19 22 19 21 11 8 8 2 5 1 9 1 3 9 13 19 21 23 26 27 30 27 24 21 17 16 13 9 6 6 4 1 0 4 4 4 4 6 8
7 6 10 9 6 13 27 20 22 6 4 14 10 2 1 2 2 4 8 15 18 21 23 25 26 29 27 25 22 18 16 13 9 7 6 5 2 1 3 6 6 6 9 9
8 4 9 10 8 2 22 24 21 19 12 10 16 11 15 8 6 2 7 17 18 21 24 26 27 28 26 25 22 17 16 14 11 8 7 6 4 3 6 7 9 7 9 9
3 3 4 14 12 7 3 21 24 24 20 15 11 22 22 14 10 0 7 17 20 22 24 27 29 28 27 26 23 18 17 16 13 9 7 6 7 5 6 6 8 9 10 11
1 3 8 8 7 8 8 6 19 23 23 19 11 17 18 12 3 5 12 19 23 24 25 27 29 30 30 27 25 21 19 18 15 11 8 9 9 8 7 8 7 9 10 10
2 2 4 13 4 5 9 14 11 14 21 20 18 16 6 9 9 9 16 22 27 26 27 30 33 34 32 28 26 24 21 20 17 13 10 11 10 9 8 8 8 8 7 7
4 1 2 3 2 9 3 11 13 14 10 23 22 14 16 19 24 12 14 26 26 25 26 28 32 35 32 26 26 24 22 21 19 16 12 13 12 10 10 10 8 8 9 8
14 3 2 2 6 3 5 10 6 5 9 10 6 18 20 18 14 20 15 21 28 34 31 31 32 34 32 28 27 27 24 22 21 19 15 14 13 12 11 10 7 9 10 12
13 9 4 1 4 10 6 14 8 1 8 13 11 9 10 12 11 15 16 22 27 26 28 30 30 34 33 30 29 29 27 24 24 21 18 15 16 13 12 10 9 11 13 14
7 3 9 5 3 2 10 17 2 10 2 18 15 13 13 7 14 18 15 15 30 28 30 28 30 35 35 33 32 31 29 27 24 21 20 17 17 15 13 12 11 12 14 14
4 7 5 4 4 3 20 5 3 6 11 16 16 16 18 20 27 26 21 14 20 30 29 30 32 35 36 35 33 32 32 26 25 23 22 20 18 19 16 14 13 14 14 15
2 1 2 4 1 8 9 9 6 8 13 17 19 20 20 22 25 23 22 16 18 26 32 32 35 36 37 37 35 34 29 29 28 25 24 22 19 21 19 17 15 16 15 16
1 1 3 3 4 8 11 6 11 13 15 20 19 20 19 21 21 21 21 19 16 24 30 34 37 38 39 39 36 31 31 29 30 28 26 25 22 23 22 20 18 17 18 18
3 3 2 4 5 11 5 16 20 23 21 24 24 20 18 18 21 19 20 20 19 24 27 36 39 41 43 40 35 34 34 33 32 30 28 28 26 23 25 23 22 20 18 19
3 4 2 2 5 5 14 20 24 20 26 26 28 29 23 17 20 19 18 18 20 25 30 34 39 42 43 42 40 35 35 35 34 33 31 31 30 27 26 26 24 22 19 17

GFSCGP_850_spd_030.txt.gz
Wind_Speed
28 20 28 42 35 27 26 30 30 23 22 21 27 29 24 22 23 29 28 30 32 30 25 18 20 16 15 15 13 15 20 25 25 21 18 14 12 11 10 10 12 14 14 17
20 30 47 29 29 29 29 29 30 24 23 23 24 29 26 24 24 31 29 32 28 27 20 15 13 8 9 8 10 15 20 23 23 18 14 11 10 9 8 9 11 11 12 15
34 43 26 32 30 30 31 30 25 27 20 22 24 29 31 27 31 30 24 24 31 28 21 12 6 6 7 9 13 17 20 23 21 16 13 11 8 7 6 8 7 8 9 10
31 35 29 32 35 33 31 25 25 25 21 23 22 23 28 22 22 22 29 28 27 21 13 9 8 9 11 13 16 20 21 23 20 15 10 9 7 7 7 6 7 8 10 9
31 29 33 31 43 30 33 22 23 24 23 25 28 19 23 19 21 25 20 24 24 13 10 11 10 12 14 18 21 21 22 19 15 13 9 7 7 6 5 5 7 8 10 8
28 21 25 42 20 29 22 17 18 18 17 21 24 21 24 24 27 25 22 18 19 10 8 11 13 17 19 21 21 21 19 15 13 11 9 8 7 5 4 6 8 6 7 6
22 29 19 21 28 25 27 21 11 13 14 17 19 19 21 24 17 25 18 11 11 11 12 16 20 21 23 23 21 19 17 14 13 10 8 6 5 4 4 5 5 4 3 6
21 20 31 21 30 22 30 27 14 19 15 15 20 11 14 10 22 32 28 14 10 13 15 19 22 24 24 22 21 18 16 14 12 10 7 6 5 3 3 4 1 0 4 8
18 28 30 22 27 28 29 24 24 11 10 7 13 14 16 17 21 16 17 20 15 12 16 21 24 23 23 22 20 17 15 13 12 10 7 6 5 2 3 3 1 3 3 8
6 12 25 35 24 27 28 24 21 15 18 16 12 10 8 8 11 13 13 15 17 16 19 23 24 24 22 20 18 15 13 13 12 10 7 5 4 2 2 2 2 3 6 10
13 8 16 28 24 27 18 23 19 18 13 14 7 8 9 17 10 12 12 16 18 21 24 26 25 24 21 20 17 15 14 13 13 10 8 6 4 2 2 1 2 3 7 10
4 6 12 26 24 24 27 21 26 13 20 11 6 4 1 7 2 10 7 12 19 23 25 26 26 25 23 20 18 16 15 13 12 9 8 5 3 2 1 3 3 4 8 9
4 9 10 15 21 21 27 23 26 17 15 19 12 3 6 5 6 4 8 16 22 25 26 27 26 25 23 20 18 16 15 13 11 9 7 6 4 2 3 4 3 6 9 10
7 8 16 7 21 15 25 25 26 23 11 12 15 13 8 8 8 7 8 17 22 26 28 28 26 25 22 20 18 17 16 13 11 9 8 6 4 3 5 5 5 7 8 10
3 12 18 13 6 6 12 24 24 26 21 16 12 18 13 11 8 7 9 20 23 25 27 28 27 26 23 21 19 17 16 14 12 10 8 7 5 4 7 5 6 7 8 9
4 5 13 17 13 7 7 9 25 21 23 19 14 15 15 15 13 4 6 21 23 24 26 27 27 26 24 22 21 18 17 15 13 10 9 8 7 6 7 7 8 7 10 10
5 4 9 18 16 6 11 13 17 21 21 20 20 19 13 5 8 8 3 18 22 23 26 28 29 28 25 24 22 20 18 17 15 11 10 10 9 7 7 8 9 9 9 9
9 7 6 10 13 13 9 7 13 14 19 21 18 15 15 12 8 9 2 9 18 20 23 26 28 27 26 23 23 20 19 18 16 13 12 12 10 8 7 8 8 8 8 8
13 6 4 5 11 10 7 8 3 10 10 6 9 16 20 19 16 15 15 11 14 21 20 23 27 28 27 25 25 23 21 20 18 15 14 13 12 10 9 8 8 9 9 9
12 10 4 5 14 14 10 8 6 5 9 8 7 5 6 7 11 3 14 12 6 17 22 23 26 28 28 26 26 24 22 22 20 18 15 14 12 11 10 8 9 9 10 9
9 6 7 6 8 7 11 9 4 11 4 9 9 8 8 8 12 24 17 11 10 12 18 23 29 31 31 29 28 26 24 23 21 18 17 15 14 12 11 9 10 11 11 10
7 6 5 3 5 5 17 4 4 8 8 10 12 11 13 17 19 20 18 14 9 8 20 25 29 30 31 30 30 27 26 23 22 20 18 16 16 13 12 10 11 12 12 11
3 1 1 2 3 4 10 9 8 8 9 12 14 15 15 18 18 17 16 13 10 8 18 23 25 29 32 32 30 29 26 24 23 22 21 18 17 16 14 12 13 12 12 11
2 5 2 7 4 6 5 8 10 12 12 15 15 16 16 18 16 16 14 10 10 10 19 24 26 29 33 33 31 28 27 27 25 24 22 20 19 18 16 14 13 13 13 13
3 6 4 6 4 4 8 12 16 17 15 17 16 17 16 17 16 15 14 11 10 12 18 25 29 31 32 34 32 29 28 29 27 25 24 22 20 21 18 16 15 14 14 13
1 5 3 2 12 7 9 14 19 14 20 20 19 20 18 17 17 16 15 12 11 14 19 25 28 28 30 32 33 32 30 31 29 28 26 25 22 21 20 19 18 20 17 20

GFSCGP_850_spd_033.txt.gz
Wind_Speed
29 19 27 42 38 35 33 25 31 32 29 30 32 34 24 25 34 36 34 28 32 34 35 28 20 16 14 13 14 17 18 22 22 21 20 19 16 12 11 11 12 12 14 13
24 30 45 28 32 33 33 32 32 29 28 27 27 29 29 24 26 36 37 32 31 35 31 22 11 8 8 10 13 16 19 22 22 19 18 15 12 11 9 9 10 11 12 16
30 42 26 34 33 30 33 32 30 31 25 25 27 29 31 30 32 35 40 43 39 32 26 24 10 6 7 11 14 17 19 20 22 18 17 14 11 10 9 9 8 11 12 14
28 34 33 33 36 34 33 30 28 26 22 21 22 22 31 24 25 24 35 34 26 26 27 21 9 9 11 13 15 18 19 21 19 19 14 12 9 8 7 7 8 8 11 12
32 30 36 37 42 32 38 24 27 25 20 24 29 18 24 21 24 24 23 27 28 28 23 14 12 13 13 15 17 19 21 20 18 15 12 10 8 6 5 6 9 10 14 15
31 33 29 39 35 30 29 28 27 21 20 20 27 21 26 23 26 20 23 27 24 25 18 11 14 16 17 18 19 20 21 18 15 13 11 9 8 6 6 6 8 13 11 11
31 30 29 32 30 36 29 26 18 19 20 26 19 21 24 23 22 22 23 28 18 15 16 17 19 20 22 23 22 21 20 17 14 12 9 7 5 5 5 6 9 7 7 6
24 27 33 29 30 36 34 31 17 32 14 20 24 26 22 22 24 27 27 12 12 13 16 18 21 23 24 23 22 20 18 16 14 11 8 6 5 3 4 7 5 3 4 6
18 30 29 33 25 27 39 27 35 24 23 20 17 17 18 18 17 13 15 22 19 17 18 21 23 24 24 23 21 19 17 15 13 11 8 6 5 4 4 6 4 4 3 4
18 13 33 28 31 30 33 28 23 21 28 24 16 14 8 6 10 15 15 16 22 19 20 23 25 25 23 22 20 18 15 14 12 10 7 5 6 4 3 7 2 4 6 7
18 7 19 34 33 30 25 24 31 21 20 17 16 10 9 6 8 12 15 19 26 24 24 26 26 25 23 21 19 17 15 13 12 10 7 5 5 3 3 4 2 4 7 8
13 5 16 19 23 31 31 29 30 17 26 18 9 7 6 3 13 10 13 21 24 24 26 27 27 26 24 21 19 16 15 13 12 9 7 5 4 2 3 2 4 3 8 8
7 9 12 6 18 29 29 33 26 27 15 22 13 10 6 3 5 10 8 21 24 25 27 28 27 25 23 21 18 16 15 13 11 9 8 6 4 2 2 3 2 5 9 8
13 14 17 7 11 22 32 33 28 27 16 17 21 12 9 11 12 9 10 15 23 27 29 28 26 25 23 21 18 16 15 13 12 9 8 6 5 3 5 4 4 7 7 11
5 18 25 10 19 27 30 26 29 27 24 18 20 15 9 10 11 10 14 19 23 26 28 28 27 26 24 21 18 17 15 13 12 10 9 7 4 6 5 6 6 6 7 10
6 12 19 14 17 30 11 27 28 25 29 19 12 16 12 5 11 8 10 19 22 25 26 27 26 25 24 22 20 18 16 14 13 11 10 7 8 8 7 8 7 8 8 8
7 8 9 7 15 23 13 18 20 20 27 19 15 7 8 8 2 4 9 19 23 23 24 26 27 26 24 22 21 19 17 16 14 12 11 10 7 7 7 8 8 8 8 8
12 10 7 4 10 6 10 15 13 19 19 19 14 14 9 6 5 7 9 18 22 22 22 24 25 25 24 22 21 19 18 17 16 14 12 11 8 7 8 7 8 7 9 8
13 8 4 6 12 6 6 5 12 15 14 4 9 17 11 16 9 10 15 11 19 19 20 22 23 24 24 23 22 20 19 18 17 15 14 13 10 8 8 7 7 8 9 8
13 9 4 5 7 8 6 8 5 4 10 9 7 5 9 11 5 8 14 14 13 21 19 21 23 24 25 24 23 22 20 19 18 16 15 14 11 10 8 7 6 7 8 7
9 6 8 7 7 6 9 12 3 11 6 6 7 6 5 7 12 12 12 10 10 8 20 20 24 25 25 25 25 24 21 20 19 17 15 15 13 12 9 8 5 9 9 7
5 3 4 5 3 1 18 3 3 6 6 8 8 8 7 9 14 14 11 10 7 8 17 22 24 25 25 25 25 24 23 20 19 18 17 16 14 12 10 9 9 10 7 7
3 3 5 6 4 7 11 16 13 12 10 12 10 10 9 8 10 10 10 8 9 8 14 22 24 25 26 26 25 25 23 22 22 20 19 17 15 14 12 12 10 10 9 6
4 8 3 6 11 5 12 12 14 12 10 12 12 12 12 10 10 8 7 6 8 10 14 23 25 27 27 27 25 24 24 24 23 22 21 19 18 16 14 12 12 10 10 8
4 10 10 4 8 5 15 11 14 15 12 14 15 14 14 12 12 10 8 6 7 10 14 22 27 27 27 27 26 25 25 25 24 23 22 21 19 19 16 14 13 11 11 11
2 5 4 3 13 16 15 17 13 14 13 17 17 16 14 13 13 13 10 6 6 9 14 21 25 26 27 29 28 27 27 27 27 26 24 23 21 21 18 17 16 16 16 16

GFSCGP_850_spd_036.txt.gz
Wind_Speed
26 16 24 40 30 29 27 31 33 29 27 28 26 25 28 24 26 26 28 23 29 37 33 25 24 32 17 21 24 25 23 27 29 23 22 22 22 22 20 17 14 15 16 18
19 28 38 22 32 31 34 32 30 29 28 24 23 26 26 22 22 26 26 26 26 32 26 22 23 17 16 17 18 19 20 23 26 23 21 21 21 14 13 13 14 16 16 18
23 37 22 29 30 30 31 31 28 31 25 27 24 26 25 24 27 27 28 32 25 25 33 40 25 15 16 13 13 14 17 23 24 22 20 16 17 12 16 16 13 17 17 16
24 26 32 30 33 30 29 28 29 28 23 20 19 19 25 20 21 20 25 25 26 26 35 32 20 19 15 11 12 15 20 20 22 18 19 21 17 15 12 10 10 8 8 16
34 22 27 31 37 29 34 21 27 28 25 21 23 14 29 17 17 16 13 20 25 27 27 15 19 20 14 14 15 17 19 22 19 23 17 18 14 10 6 6 10 14 17 16
29 33 28 29 26 32 26 26 29 26 19 19 26 19 29 19 19 17 16 24 26 21 22 23 21 20 19 17 18 19 21 21 22 22 15 13 11 8 9 8 8 11 15 10
24 28 31 29 29 29 31 23 17 19 17 21 17 19 23 21 19 18 18 19 22 18 21 29 26 23 21 21 21 22 24 21 20 16 14 13 11 12 10 7 9 11 8 7
13 19 28 24 33 27 29 25 16 25 17 19 21 26 20 21 21 25 20 14 18 24 22 26 23 24 24 24 23 22 23 18 17 14 11 9 6 2 2 9 8 6 5 4
7 15 27 30 29 28 30 28 31 22 21 19 16 18 30 27 20 14 7 15 21 22 24 23 24 25 26 26 25 23 20 18 16 13 11 8 5 4 2 7 7 4 1 3
5 14 23 27 28 33 31 21 25 19 25 24 20 22 14 11 15 12 13 9 17 25 25 24 25 27 27 25 24 21 19 18 16 13 10 8 4 3 4 7 3 2 7 6
9 9 18 23 26 28 24 25 23 21 18 16 15 14 12 2 9 6 9 17 18 26 25 27 26 27 26 25 23 21 19 17 15 13 9 7 4 4 4 6 3 4 11 5
15 7 16 23 20 21 29 25 25 19 24 17 13 15 5 2 5 5 11 21 29 27 26 28 28 27 26 24 22 20 19 16 14 12 9 7 4 6 2 1 1 5 10 10
6 6 11 19 17 20 20 28 24 21 11 19 17 16 7 6 8 11 11 21 30 29 28 29 29 27 26 24 21 19 18 16 14 13 11 7 6 4 2 4 3 8 12 11
3 7 15 11 7 15 8 24 31 26 17 19 19 9 6 7 8 5 17 29 28 29 30 30 29 27 25 23 21 19 17 16 15 13 10 7 5 5 4 5 5 8 15 12
2 8 18 21 13 15 21 29 29 29 24 22 19 18 13 12 11 13 15 23 26 28 29 29 28 28 26 23 21 19 18 16 15 13 12 7 4 7 6 6 8 8 13 12
4 4 16 14 15 10 23 31 26 29 26 27 21 14 11 12 17 16 15 19 24 27 28 28 27 26 25 24 21 20 19 17 15 14 12 8 9 10 7 7 7 8 9 14
15 5 8 8 6 7 18 23 22 22 25 26 17 6 18 8 8 11 17 21 22 26 27 27 26 26 25 23 22 21 20 17 16 14 13 10 9 8 9 8 6 9 8 7
14 11 6 3 8 4 15 15 21 23 18 23 11 3 11 16 11 23 9 23 24 26 26 26 26 25 25 22 22 21 20 18 17 16 14 10 11 8 10 9 7 8 9 8
11 6 4 4 6 5 26 6 10 9 10 17 14 10 3 0 28 22 22 16 20 23 25 26 25 26 24 24 24 23 21 19 17 16 15 14 14 6 8 8 7 7 8 9
8 7 4 4 5 5 2 18 27 10 10 18 15 13 13 12 1 9 17 15 11 5 25 25 26 26 26 25 25 23 22 20 19 17 16 15 10 9 9 7 7 9 7 6
7 3 9 6 3 7 15 26 28 8 2 10 14 15 15 12 8 11 12 13 13 4 28 25 27 27 27 26 26 24 22 21 19 18 17 15 14 13 13 6 7 10 9 7
3 3 2 3 2 4 20 13 10 2 8 16 16 15 13 11 10 12 12 12 12 6 19 27 27 27 28 28 27 24 23 21 20 19 18 17 15 12 10 10 12 11 8 5
2 6 4 5 4 8 23 13 15 17 17 20 19 16 14 11 11 10 9 10 11 9 3 24 26 27 28 28 28 25 24 22 22 21 20 19 17 16 11 13 13 9 8 7
8 9 5 7 11 16 14 21 23 18 18 15 20 15 14 11 10 8 6 7 8 10 11 19 27 28 29 29 27 25 24 23 23 23 23 21 20 17 14 13 12 11 11 9
4 8 9 2 5 8 17 18 17 14 11 13 14 14 12 8 8 9 6 6 8 10 13 14 27 28 29 29 28 27 25 25 25 25 25 23 22 18 18 17 12 11 12 11
6 6 6 5 12 9 14 20 17 16 9 9 11 13 12 9 8 10 11 6 5 8 11 14 25 29 28 29 29 28 27 27 28 27 26 24 23 22 19 20 18 11 13 11

GFSCGP_850_spd_039.txt.gz
Wind_Speed
16 9 20 33 20 15 16 25 20 16 19 17 23 25 27 21 20 22 30 26 28 22 24 23 21 31 25 21 18 22 24 25 25 28 28 30 27 27 24 23 19 18 19 18
9 23 24 15 17 21 24 24 21 14 13 16 21 18 23 21 17 32 33 34 36 31 34 25 27 22 22 22 21 20 21 23 25 25 22 18 19 23 20 18 20 19 19 20
15 13 17 19 20 21 26 26 17 22 14 23 16 16 18 17 14 21 23 34 34 26 26 29 30 23 24 21 22 16 15 22 21 19 15 13 14 12 12 14 18 20 21 21
15 17 21 20 26 20 24 13 22 21 14 21 6 14 22 17 20 15 26 30 32 32 33 29 27 22 24 22 16 13 15 20 20 16 15 17 19 15 17 18 15 16 17 19
23 13 9 19 21 18 22 13 18 16 18 17 17 6 28 9 12 9 10 26 27 20 24 26 25 22 25 19 14 13 15 17 18 16 21 16 21 16 13 12 12 11 13 13
19 18 18 16 17 18 17 17 21 16 12 13 16 13 32 18 19 6 9 29 24 25 28 24 17 26 22 17 14 14 17 20 22 18 18 16 17 9 14 13 11 10 12 13
14 18 20 20 19 17 15 14 7 8 11 17 11 10 22 5 13 12 15 22 22 19 14 23 30 28 24 19 17 18 24 26 22 21 15 14 17 15 14 13 12 12 11 7
3 7 8 9 20 14 13 13 10 16 13 13 11 12 10 16 18 27 33 33 20 28 18 30 33 30 25 21 20 25 26 22 22 22 17 16 14 12 10 8 8 9 6 4
3 7 11 22 17 14 21 19 14 13 20 6 8 18 24 23 24 19 16 17 15 15 29 36 32 28 26 23 24 27 23 20 23 16 12 9 9 5 6 4 5 4 3 4
1 9 9 17 14 15 14 11 6 11 18 15 10 17 10 17 15 18 9 10 16 28 37 34 30 29 26 23 24 22 19 20 18 13 10 9 6 6 5 6 4 4 7 8
3 6 12 8 4 9 8 17 13 6 12 11 10 12 15 10 10 9 10 18 32 38 39 36 33 31 27 24 24 21 20 19 18 13 10 10 7 8 7 5 4 9 8 5
4 2 6 13 18 16 16 19 16 9 8 10 10 13 9 11 1 8 13 24 36 41 40 37 35 32 28 26 24 23 22 19 17 14 11 10 9 7 4 2 4 13 13 7
2 2 5 6 7 9 7 8 9 9 14 17 17 11 11 13 7 8 10 30 35 39 39 37 36 33 28 27 25 23 22 18 16 16 13 10 7 6 5 3 5 15 16 11
5 4 7 7 15 5 10 18 16 9 11 14 16 17 13 13 10 7 17 36 38 40 40 38 35 33 29 28 24 23 19 18 17 16 14 10 8 5 5 6 7 15 14 12
3 5 7 15 19 12 14 19 19 14 17 9 16 16 16 13 5 8 29 35 35 36 37 38 37 34 31 28 25 23 20 19 17 18 12 10 4 8 6 7 8 15 11 13
6 4 11 16 17 13 12 21 19 18 22 16 19 17 9 4 19 15 22 29 31 34 36 37 37 34 33 29 27 23 23 20 18 18 14 9 8 10 9 7 9 12 14 16
8 5 5 6 5 8 7 18 17 14 19 19 18 7 8 13 14 0 22 29 31 32 37 38 38 36 34 30 28 24 25 21 18 17 14 9 9 11 9 5 8 11 13 13
14 11 2 4 1 5 3 7 15 15 22 20 21 16 16 11 16 25 12 30 32 33 38 37 37 36 33 29 26 25 25 21 20 17 14 11 11 11 12 10 7 9 9 8
16 8 2 3 3 8 8 4 9 11 3 16 14 14 11 4 20 14 21 15 33 36 38 37 35 34 33 30 28 26 25 21 21 20 15 12 12 13 12 10 7 8 9 10
12 9 4 3 2 3 3 17 29 23 4 15 12 21 6 10 7 3 17 18 13 32 39 37 35 34 32 29 28 27 25 21 22 21 16 14 13 10 10 10 9 10 9 10
2 3 5 5 3 3 7 22 39 3 3 12 14 18 12 4 4 9 13 18 17 22 39 37 36 35 32 30 28 27 25 24 22 19 18 18 17 11 10 9 10 9 8 11
3 4 3 3 2 4 22 25 5 7 18 7 17 20 12 12 16 14 15 18 12 19 33 37 37 35 32 30 28 27 26 24 23 19 19 22 19 13 10 9 13 10 7 9
2 3 2 4 4 10 17 21 30 26 15 25 27 26 21 19 18 15 13 16 13 6 29 22 35 34 32 30 29 29 26 26 24 24 23 21 16 11 13 13 13 10 8 6
3 12 1 5 6 11 11 24 28 26 26 29 27 27 29 24 22 23 21 15 10 7 14 10 34 34 34 32 28 27 28 26 25 27 26 24 17 16 11 13 11 11 10 9
3 8 9 3 4 7 14 28 33 35 32 27 26 27 29 28 22 22 23 18 16 7 6 13 36 37 35 32 28 29 28 28 27 29 27 24 18 18 14 15 15 12 7 6
4 5 4 4 17 11 17 22 25 22 27 28 26 28 29 27 22 22 21 18 19 12 3 3 36 37 35 31 28 30 28 30 29 31 29 26 21 20 19 18 16 16 11 10

GFSCGP_850_spd_042.txt.gz
Wind_Speed
5 5 18 23 16 14 7 17 8 5 11 14 19 23 18 20 18 21 30 32 39 42 42 44 31 33 28 24 28 24 21 21 23 25 31 32 29 25 23 20 21 21 20 18
5 19 12 7 6 11 13 15 14 9 9 9 13 22 23 22 19 29 33 33 38 39 41 43 34 32 27 24 20 21 21 22 24 27 30 34 32 24 21 20 19 18 13 13
10 5 12 15 12 15 16 18 14 10 10 22 13 12 17 20 17 28 30 35 35 29 32 35 37 31 29 24 22 22 24 23 21 23 24 24 24 21 21 21 19 17 16 16
9 10 14 10 21 13 19 9 12 15 11 16 7 17 21 22 25 21 21 30 34 35 40 39 38 34 28 25 22 22 20 19 19 21 20 20 20 23 20 15 15 16 17 19
8 5 1 12 15 12 20 11 13 14 10 16 17 7 29 7 18 12 14 23 34 39 37 34 33 31 27 23 23 20 17 18 18 17 15 18 19 16 14 17 13 13 15 17
13 15 9 9 10 9 5 9 12 16 3 11 9 10 28 16 22 18 7 29 32 32 35 29 19 20 25 24 22 18 17 20 19 18 20 18 19 19 14 15 15 13 13 14
8 13 14 15 12 10 5 2 2 3 7 15 11 9 23 7 5 10 14 25 35 35 31 22 20 25 29 26 22 19 22 24 22 22 20 19 19 16 15 14 12 12 12 15
2 3 5 2 1 5 6 9 5 7 4 8 7 12 16 16 26 31 36 35 37 37 25 21 23 31 31 27 23 24 26 26 24 23 20 17 18 14 13 11 10 11 12 10
2 4 3 10 6 4 5 9 7 5 14 1 6 9 18 23 24 21 21 24 32 26 22 28 33 33 30 26 24 24 30 27 25 22 18 15 14 12 11 9 7 8 8 7
2 2 6 5 5 6 8 3 4 3 6 8 6 6 10 7 14 10 12 17 17 19 27 33 34 32 28 24 23 28 27 26 23 20 14 11 10 9 7 5 5 6 7 8
3 4 3 5 3 7 1 4 5 4 3 8 6 9 8 12 10 12 17 17 27 35 35 37 34 30 26 24 28 26 24 24 21 15 12 13 10 6 4 4 5 8 8 5
2 3 4 9 16 13 6 9 5 5 11 5 11 16 9 9 10 8 10 16 32 39 39 37 35 32 29 30 29 26 25 22 17 13 15 12 8 7 6 3 7 11 10 8
5 1 4 9 3 3 4 5 1 4 5 19 8 7 8 12 11 21 7 18 26 34 36 36 34 33 32 31 28 26 22 19 18 14 15 11 7 7 5 5 9 14 12 9
2 3 5 5 5 6 8 6 5 0 2 12 18 15 24 19 21 21 13 15 31 35 40 38 36 35 32 31 28 26 21 19 19 16 13 11 8 6 5 7 10 16 15 10
5 4 8 13 17 17 18 18 13 9 8 3 7 8 18 17 17 18 20 30 27 30 33 38 39 37 34 32 28 25 21 19 20 18 13 10 7 7 7 9 11 16 15 13
6 4 6 14 18 18 20 18 14 15 11 11 17 19 17 20 24 9 28 33 33 33 35 37 40 37 35 32 28 27 22 22 19 19 14 10 8 10 10 10 10 16 12 15
6 3 2 6 12 6 6 13 16 6 8 3 7 6 14 13 10 11 24 35 36 36 37 40 41 37 35 31 27 28 25 22 19 19 17 12 11 11 10 9 10 13 14 17
6 6 4 6 8 4 2 10 8 2 10 13 12 18 18 8 10 20 12 24 32 36 37 41 40 36 33 30 27 27 26 23 19 20 16 11 11 11 13 8 9 12 15 15
14 6 3 3 3 4 4 6 6 6 6 4 10 17 6 11 11 17 11 20 24 40 43 41 38 35 34 32 29 28 28 25 20 20 15 11 12 14 13 10 9 11 12 12
13 11 4 3 4 3 2 13 14 13 6 4 15 5 8 11 2 4 14 15 24 37 39 39 37 35 36 34 31 29 30 25 22 20 16 13 13 13 12 10 9 11 12 11
1 1 10 10 5 3 12 21 32 6 6 23 19 20 11 8 7 7 2 9 34 41 39 37 39 39 38 35 33 30 30 25 21 20 17 16 13 12 9 10 11 11 11 13
2 2 2 2 5 3 22 16 8 9 20 19 25 18 17 18 11 5 4 6 26 40 40 40 42 41 38 35 34 29 28 20 23 22 18 19 16 14 10 8 12 11 10 13
3 4 3 2 2 9 8 11 18 20 18 23 25 14 22 23 20 13 6 13 21 34 38 40 42 41 39 35 32 28 23 23 26 25 20 22 19 15 11 9 12 11 11 13
3 3 1 4 6 9 11 17 22 28 25 24 20 11 27 17 20 22 28 19 23 24 27 34 39 40 39 36 32 22 24 26 26 28 22 24 19 16 9 12 11 10 8 9
3 6 6 3 4 13 5 25 26 28 24 29 32 28 30 17 25 28 29 27 23 12 7 14 31 37 37 36 32 24 26 28 26 30 25 24 21 16 11 14 12 10 5 1
2 3 2 3 12 9 16 23 27 28 30 30 34 33 31 21 24 26 29 28 23 17 13 12 17 32 35 35 33 28 29 30 27 33 29 26 23 18 13 16 16 12 8 4

GFSCGP_850_spd_045.txt.gz
Wind_Speed
8 6 16 23 18 2 4 9 3 8 10 14 19 24 20 19 21 23 30 33 39 39 39 46 42 42 41 39 34 30 31 32 28 28 29 30 27 26 24 20 19 18 19 19
3 18 12 5 7 7 6 5 3 7 8 4 10 17 10 10 14 24 28 30 33 38 37 36 34 37 30 25 31 31 29 29 25 28 30 27 23 21 17 17 17 18 18 18
7 7 11 6 7 7 6 12 7 5 9 17 12 18 12 12 12 25 32 33 35 30 37 42 41 37 37 30 28 30 25 23 25 25 24 22 17 16 17 17 17 17 14 13
5 7 6 3 11 7 11 4 5 8 5 10 2 17 18 21 23 20 26 32 27 33 39 40 37 35 36 36 28 28 24 22 21 21 20 23 24 21 19 16 13 12 12 13
6 1 4 10 4 6 11 10 9 11 6 4 7 5 23 8 22 17 15 28 36 45 38 36 36 32 31 26 26 26 22 20 18 18 16 19 19 18 18 15 13 14 14 15
5 12 4 6 5 5 1 4 7 7 3 6 8 9 24 9 20 19 21 25 34 35 33 32 26 29 23 19 26 24 21 19 17 18 18 18 19 19 18 17 16 14 14 14
6 13 9 6 5 4 3 4 1 1 3 10 12 9 22 6 3 5 8 17 28 31 33 34 35 29 22 25 27 24 21 20 19 18 17 18 18 16 14 13 14 14 13 11
1 2 7 3 11 6 5 8 4 6 4 7 6 13 16 13 22 31 31 29 26 26 27 31 28 22 23 29 27 24 22 21 20 18 19 17 16 15 13 13 13 11 10 12
3 3 2 3 1 7 2 4 7 3 4 2 6 10 18 20 15 14 11 18 26 32 32 31 21 25 29 30 27 25 23 22 22 23 20 17 16 14 13 13 11 9 9 9
3 2 3 4 3 6 6 4 3 1 5 5 6 9 12 6 19 20 15 10 28 33 26 25 24 26 30 27 24 24 23 24 25 23 19 16 14 12 11 10 8 6 7 7
3 1 4 3 3 3 1 3 4 3 5 4 3 6 7 12 9 5 9 21 31 33 21 24 26 27 29 26 26 27 26 27 25 21 17 13 13 11 9 7 5 5 7 7
4 2 3 9 8 7 4 4 3 6 7 10 1 8 8 3 7 7 8 25 25 11 18 26 29 31 30 28 29 31 29 26 22 19 16 14 13 10 6 4 3 7 9 8
2 0 3 7 3 3 2 4 6 1 2 11 10 9 5 8 14 16 13 23 9 9 19 28 31 33 30 30 32 30 27 24 21 20 18 14 10 8 6 3 6 11 11 10
5 4 6 5 5 4 5 9 6 3 4 12 20 18 18 23 17 15 23 13 9 15 19 29 33 32 30 32 31 29 27 24 21 19 17 14 8 6 4 5 8 14 12 10
5 5 5 8 11 15 15 14 19 15 11 5 14 17 6 15 14 16 31 20 17 22 27 29 35 33 33 33 30 28 25 23 22 19 17 12 8 5 5 8 9 16 13 10
4 4 4 12 16 17 17 21 19 18 18 13 14 22 11 20 20 19 25 22 23 28 31 31 35 34 34 33 32 28 25 24 23 20 14 11 7 6 7 10 11 14 14 11
6 2 2 5 6 10 13 16 20 15 11 9 14 9 11 6 9 11 21 24 27 32 36 39 38 35 35 33 32 30 25 23 22 20 14 10 7 9 9 9 10 14 13 13
6 4 3 5 5 6 2 10 8 18 13 14 14 12 17 8 21 22 14 13 19 27 33 37 37 34 33 31 29 27 25 24 21 19 17 13 10 11 11 9 9 11 12 12
14 6 3 3 4 9 10 5 5 5 6 2 8 13 15 21 13 13 7 8 15 29 37 39 35 33 33 30 27 29 26 24 19 18 18 13 11 12 11 10 8 9 11 13
13 13 5 2 4 4 4 10 13 11 7 9 14 13 11 7 7 8 5 8 9 25 34 35 34 33 32 31 28 30 27 25 21 18 16 10 10 11 12 10 8 9 10 8
2 3 10 9 6 5 6 14 13 4 2 17 19 19 18 4 6 8 11 2 10 27 35 33 34 34 33 32 31 30 28 26 21 19 16 13 10 10 10 10 9 9 10 10
3 3 2 3 4 4 15 14 2 5 11 14 22 22 25 18 7 3 8 7 14 22 31 35 37 36 33 32 33 30 28 24 21 20 18 15 11 11 11 10 11 10 10 12
3 2 3 2 3 9 13 13 19 14 11 15 23 31 30 19 9 5 2 0 13 34 33 36 37 37 34 34 34 31 24 26 21 21 20 17 14 11 10 9 11 11 10 11
3 1 3 3 5 12 22 13 24 23 19 28 30 32 27 11 14 12 5 7 18 38 39 39 38 36 35 35 35 27 24 26 23 23 21 19 17 13 11 9 10 9 9 10
4 6 5 5 4 19 11 25 25 22 20 28 28 23 14 11 19 18 11 14 22 32 37 37 35 36 34 34 33 30 25 26 26 24 23 21 19 15 10 11 11 8 4 1
2 3 3 6 17 10 15 23 22 16 27 30 28 22 7 23 22 15 16 16 20 23 22 22 28 33 34 32 31 30 27 26 27 25 25 22 22 18 13 11 12 10 6 2

GFSCGP_850_spd_048.txt.gz
Wind_Speed
7 5 16 30 26 8 3 11 2 3 5 8 19 22 16 12 21 23 29 35 41 45 49 44 40 34 34 29 30 25 25 25 28 28 31 30 33 32 27 25 18 15 15 16
5 15 10 2 5 5 2 3 1 4 4 2 6 11 9 6 11 21 27 31 33 42 42 37 33 30 31 33 31 31 25 25 26 30 28 30 30 25 21 15 13 15 16 16
6 7 8 8 5 8 5 5 3 2 7 6 5 14 10 7 16 26 33 33 35 37 35 36 35 34 34 33 31 31 28 24 27 28 30 27 22 19 17 15 16 17 16 14
6 6 4 2 6 6 5 7 5 5 5 6 2 12 13 9 15 13 25 32 34 31 37 41 38 37 34 33 33 33 30 23 24 25 25 21 19 17 13 13 14 15 15 14
7 1 4 5 5 7 7 2 4 2 3 3 2 4 6 5 11 17 19 33 36 37 44 44 42 37 29 30 31 32 22 21 22 21 17 15 13 10 10 15 16 16 14 12
5 1 2 5 4 7 4 6 2 3 3 4 6 6 18 9 16 13 14 26 31 33 32 34 33 28 27 21 26 20 17 20 17 16 14 13 12 13 16 17 15 13 11 11
1 6 4 4 2 1 2 5 2 2 3 11 13 9 21 5 3 3 6 9 13 16 20 23 22 23 25 22 19 17 19 19 18 16 15 15 14 14 14 15 13 12 11 10
5 3 5 4 8 6 6 7 5 6 4 4 8 11 9 14 25 33 26 20 18 17 22 24 24 21 21 19 17 19 20 20 19 17 18 17 15 16 15 12 11 10 9 10
5 3 5 6 2 8 4 4 5 3 2 1 4 7 11 14 19 11 5 13 21 22 28 26 27 21 20 18 20 22 21 20 19 19 19 19 17 16 13 12 11 10 10 9
4 3 4 4 3 4 4 5 3 2 4 4 5 6 8 8 8 14 8 9 27 34 33 29 16 16 17 18 21 21 20 20 19 19 19 17 15 13 12 11 10 9 9 7
5 3 6 2 3 3 3 2 2 4 5 4 2 5 7 14 2 5 6 13 29 32 29 15 5 14 15 21 24 23 22 21 22 21 18 15 14 12 10 9 9 7 7 7
3 1 3 6 6 3 1 3 1 4 7 7 3 7 2 6 5 5 8 25 33 25 22 7 5 14 23 27 27 25 23 23 23 20 16 13 11 10 10 9 6 8 11 9
1 2 2 6 1 3 2 2 4 1 0 7 7 7 3 7 13 12 15 30 32 20 14 4 8 20 28 28 27 25 25 25 23 18 15 14 13 12 9 6 7 11 10 9
5 3 5 5 2 2 2 6 7 4 4 7 20 15 19 21 20 15 25 31 29 24 11 6 15 24 26 27 27 28 27 24 21 19 17 14 13 10 8 6 9 12 12 11
4 5 6 10 13 11 9 12 12 13 13 9 17 15 7 18 16 16 22 28 26 24 16 14 21 25 26 28 30 29 27 25 21 20 16 13 10 9 7 7 10 14 13 12
3 3 2 10 12 11 13 14 15 18 19 21 19 21 10 23 27 18 22 23 25 26 21 23 25 28 28 31 32 29 28 25 21 20 18 15 11 8 7 7 9 16 14 11
3 2 1 5 5 7 8 18 17 20 21 17 21 11 8 15 16 15 24 24 29 33 19 28 30 32 31 33 32 32 29 25 23 20 17 14 10 7 6 8 10 14 14 10
5 5 2 4 2 5 6 1 6 15 21 20 14 8 11 15 16 33 37 32 27 26 22 29 32 33 31 33 32 28 26 26 24 20 16 14 10 8 7 9 9 13 12 10
15 6 2 3 3 9 6 6 6 6 6 8 5 6 6 16 21 32 38 30 18 17 20 26 31 32 31 33 32 28 26 25 23 20 18 14 9 9 9 9 9 11 11 10
13 12 6 3 5 4 3 5 13 9 7 6 6 6 9 14 7 9 13 21 13 16 21 25 31 31 31 33 32 29 27 25 24 20 17 12 9 11 10 8 7 9 9 9
2 2 12 10 5 2 2 12 11 6 3 16 9 11 13 9 11 26 25 17 9 20 21 25 30 30 30 31 32 30 28 26 21 18 15 9 8 10 10 9 7 7 8 8
3 3 2 2 5 2 6 9 3 8 23 21 14 12 16 21 23 22 21 18 9 22 23 26 29 31 31 31 30 30 28 24 21 19 16 11 9 11 10 9 8 7 8 9
3 1 4 2 3 11 18 13 17 21 24 10 16 20 20 20 19 21 12 14 15 21 19 25 27 31 32 32 28 27 27 24 23 21 17 14 11 11 10 8 9 9 9 9
4 2 3 6 3 8 8 14 13 17 21 16 20 27 21 23 18 14 8 10 17 24 20 22 25 31 32 32 29 23 23 24 24 22 18 16 14 11 9 7 7 7 7 8
5 5 5 6 8 21 6 23 19 21 20 18 31 24 23 17 13 9 5 8 18 26 24 20 21 31 31 31 29 28 23 23 24 22 19 18 16 12 8 7 6 4 2 2
3 3 3 6 18 15 19 27 23 22 20 24 32 29 17 12 8 3 6 7 15 24 33 26 26 29 32 30 29 29 26 24 24 24 21 20 18 15 9 7 8 6 4 3